Weather History for KMLU - May, 2013

Change the Weather History Date:

Tuesday, May 21, 2013

  Actual Average Record
Temperature  
Mean Temperature 77 °F 75 °F  
Max Temperature 89 °F 87 °F 98 °F (1978)
Min Temperature 64 °F 64 °F 48 °F (1954)
Degree Days  
Heating Degree Days 0 0  
Month to date heating degree days 41 3  
Since 1 July heating degree days 2205 2227  
Cooling Degree Days 12 11  
Month to date cooling degree days 118 171  
Year to date cooling degree days 223 318  
Growing Degree Days 26 (Base 50)    
Moisture  
Dew Point 69 °F    
Average Humidity 71    
Maximum Humidity 87    
Minimum Humidity 55    
Precipitation  
Precipitation 0.72 in 0.15 in 1.61 in (1967)
Month to date precipitation 3.32 3.56  
Year to date precipitation 24.98 22.42  
Snow  
Snow 0.00 in - - ()
Month to date snowfall 0.0  
Since 1 July snowfall 0.3  
Snow Depth 0.00 in    
Sea Level Pressure  
Sea Level Pressure 29.89 in    
Wind  
Wind Speed 11 mph (South)    
Max Wind Speed 40 mph    
Max Gust Speed 52 mph    
Visibility 8 miles    
Events Rain , Thunderstorm    
T = Trace of Precipitation, MM = Missing Value Source: NWS Daily Summary

Daily Weather History Graph

Daily Weather History Graph

Search for Another Location

Airport or City:

Trip Planner

Search our weather history database for the weather conditions in past years. The results will help you decide how hot, cold, wet, or windy it might be!

Date:

Astronomy

May. 21, 2013 Rise Set
Actual Time 6:05 AM CDT 8:03 PM CDT
Civil Twilight 5:38 AM CDT 8:31 PM CDT
Nautical Twilight 5:05 AM CDT 9:04 PM CDT
Astronomical Twilight 4:29 AM CDT 9:40 PM CDT
Moon 4:28 PM CDT (5/21) 3:21 AM CDT (5/21)
Length of Visible Light 14h 52m
Length of Day
13h 57m
Waxing Gibbous, 84% of the Moon is Illuminated
May 21
Waxing Gibbous
May 24
Full
May 31
Last Quarter
Jun 8
New
Jun 16
First Quarter

Hourly Weather History & Observations

Time (CDT) Temp. Heat Index Dew Point Humidity Pressure Visibility Wind Dir Wind Speed Gust Speed Precip Events Conditions
12:53 AM 75.9 °F - 71.1 °F 85% 29.92 in 10.0 mi South 5.8 mph - N/A   Clear
1:53 AM 75.9 °F - 70.0 °F 82% 29.89 in 10.0 mi South 8.1 mph - N/A   Clear
2:53 AM 75.9 °F - 70.0 °F 82% 29.88 in 10.0 mi South 9.2 mph 18.4 mph N/A   Clear
3:53 AM 75.0 °F - 71.1 °F 87% 29.89 in 10.0 mi South 5.8 mph - N/A   Scattered Clouds
4:25 AM 75.2 °F - 71.6 °F 89% 29.91 in 10.0 mi South 5.8 mph - N/A   Overcast
4:50 AM 75.2 °F - 71.6 °F 89% 29.91 in 10.0 mi SSE 5.8 mph - N/A   Mostly Cloudy
4:53 AM 75.0 °F - 71.1 °F 87% 29.90 in 10.0 mi SSE 6.9 mph - N/A   Mostly Cloudy
5:53 AM 75.0 °F - 71.1 °F 87% 29.89 in 9.0 mi SSE 9.2 mph - N/A   Partly Cloudy
6:18 AM 73.4 °F - 71.6 °F 94% 29.89 in 7.0 mi SSE 9.2 mph - N/A   Mostly Cloudy
6:35 AM 75.2 °F - 71.6 °F 89% 29.87 in 7.0 mi SSE 8.1 mph 19.6 mph N/A   Scattered Clouds
6:53 AM 75.0 °F - 72.0 °F 90% 29.88 in 8.0 mi South 8.1 mph - N/A   Partly Cloudy
7:01 AM 75.2 °F - 71.6 °F 89% 29.90 in 8.0 mi South 10.4 mph - N/A   Scattered Clouds
7:09 AM 75.2 °F - 71.6 °F 89% 29.90 in 8.0 mi South 8.1 mph - N/A   Mostly Cloudy
7:24 AM 75.2 °F - 71.6 °F 89% 29.91 in 8.0 mi South 8.1 mph - N/A   Mostly Cloudy
7:39 AM 75.2 °F - 71.6 °F 89% 29.91 in 8.0 mi South 8.1 mph - N/A   Overcast
7:53 AM 75.9 °F - 72.0 °F 87% 29.92 in 8.0 mi South 8.1 mph - N/A   Overcast
8:24 AM 77.0 °F - 71.6 °F 83% 29.93 in 9.0 mi South 5.8 mph - N/A   Overcast
8:31 AM 77.0 °F - 71.6 °F 83% 29.92 in 9.0 mi South 11.5 mph 16.1 mph N/A   Overcast
8:46 AM 78.8 °F - 71.6 °F 78% 29.92 in 10.0 mi South 8.1 mph - N/A   Mostly Cloudy
8:53 AM 79.0 °F - 73.0 °F 82% 29.92 in 10.0 mi South 11.5 mph 17.3 mph N/A   Mostly Cloudy
9:06 AM 78.8 °F - 71.6 °F 78% 29.92 in 10.0 mi South 9.2 mph - N/A   Mostly Cloudy
9:53 AM 80.1 °F 83.8 °F 72.0 °F 76% 29.91 in 10.0 mi South 10.4 mph 17.3 mph N/A   Mostly Cloudy
10:53 AM 82.0 °F 86.7 °F 72.0 °F 71% 29.91 in 10.0 mi South 11.5 mph - N/A   Overcast
11:53 AM 84.9 °F 90.7 °F 72.0 °F 65% 29.89 in 10.0 mi South 15.0 mph 20.7 mph N/A   Mostly Cloudy
12:53 PM 86.0 °F 90.7 °F 70.0 °F 59% 29.88 in 10.0 mi South 16.1 mph 23.0 mph N/A   Mostly Cloudy
1:53 PM 87.1 °F 93.6 °F 72.0 °F 61% 29.85 in 10.0 mi South 13.8 mph - N/A   Mostly Cloudy
2:53 PM 88.0 °F 94.7 °F 72.0 °F 59% 29.83 in 10.0 mi South 11.5 mph 19.6 mph N/A   Mostly Cloudy
3:53 PM 89.1 °F 95.0 °F 71.1 °F 55% 29.79 in 10.0 mi South 13.8 mph - N/A   Mostly Cloudy
4:53 PM 88.0 °F 92.9 °F 70.0 °F 55% 29.75 in 10.0 mi South 15.0 mph 24.2 mph N/A   Mostly Cloudy
5:53 PM 88.0 °F 93.8 °F 71.1 °F 57% 29.75 in 10.0 mi South 13.8 mph 18.4 mph N/A   Clear
6:53 PM 84.0 °F 87.8 °F 69.1 °F 61% 29.75 in 10.0 mi South 10.4 mph 19.6 mph N/A   Partly Cloudy
7:53 PM 82.9 °F 86.5 °F 69.1 °F 63% 29.77 in 10.0 mi South 10.4 mph - N/A   Clear
8:53 PM 82.0 °F 85.5 °F 69.1 °F 65% 29.82 in 10.0 mi SSW 9.2 mph - N/A   Scattered Clouds
9:05 PM 80.6 °F 83.9 °F 69.8 °F 70% 29.85 in 10.0 mi NW 24.2 mph 32.2 mph N/A Thunderstorm Mostly Cloudy
9:17 PM 71.6 °F - 64.4 °F 78% 29.87 in 5.0 mi NNW 33.4 mph 43.7 mph 0.06 in Rain , Thunderstorm Light Thunderstorms and Rain
9:21 PM 68.0 °F - 62.6 °F 83% 29.92 in 1.8 mi NW 27.6 mph 51.8 mph 0.18 in Rain , Thunderstorm Heavy Thunderstorms and Rain
9:33 PM 64.4 °F - 62.6 °F 94% 29.93 in 0.8 mi NNW 32.2 mph 44.9 mph 0.56 in Rain , Thunderstorm Heavy Thunderstorms and Rain
9:39 PM 64.4 °F - 62.6 °F 94% 29.94 in 1.5 mi NNW 23.0 mph 44.9 mph 0.59 in Rain , Thunderstorm Thunderstorms and Rain
9:42 PM 64.4 °F - 62.6 °F 94% 29.93 in 3.0 mi NNW 20.7 mph 39.1 mph 0.59 in Rain , Thunderstorm Thunderstorms and Rain
9:53 PM 64.0 °F - 62.1 °F 93% 29.94 in 3.0 mi North 18.4 mph 29.9 mph 0.66 in Rain , Thunderstorm Heavy Thunderstorms and Rain
10:11 PM 64.4 °F - 62.6 °F 94% 29.92 in 10.0 mi North 15.0 mph 24.2 mph 0.01 in Rain , Thunderstorm Light Rain
10:34 PM 64.4 °F - 62.6 °F 94% 29.93 in 8.0 mi NNE 12.7 mph 20.7 mph 0.03 in Rain Rain
10:48 PM 64.4 °F - 62.6 °F 94% 29.93 in 9.0 mi ENE 13.8 mph 20.7 mph 0.06 in Rain , Thunderstorm Light Rain
10:53 PM 64.0 °F - 62.1 °F 93% 29.92 in 10.0 mi NE 16.1 mph - 0.06 in Rain , Thunderstorm Light Rain
11:03 PM 64.4 °F - 62.6 °F 94% 29.93 in 10.0 mi NE 11.5 mph - 0.00 in Rain Light Rain
11:53 PM 64.0 °F - 62.1 °F 93% 29.93 in 10.0 mi ENE 5.8 mph - 0.00 in   Scattered Clouds